Theta_e
342 343 348 345 342 343 340 341 338 337 339 339 340 340 341 341 343 342 344 344 344 344 345 344 344 343 343 340 336 334 332 329 327 325 327 335 340 338 338 339 341 339 340 341 340 336 326 327 334 332 329 330 332 333 333 333 332 332 330 329 328 330 332 333 333 332 333 334 336 336 336 337 336 336 335 335 333 332 334 334 335 334 334 333 333
342 344 348 345 343 343 340 341 338 338 338 340 340 339 339 339 342 342 343 343 343 344 344 344 343 343 342 339 335 333 330 327 324 325 328 335 340 340 339 340 342 339 340 340 340 337 326 329 333 330 331 334 334 333 333 332 333 332 333 331 329 329 330 331 332 332 333 334 335 335 335 336 336 335 335 335 334 333 332 332 333 334 334 333 333
343 344 348 346 344 343 341 341 339 337 336 340 340 337 336 336 339 340 341 342 343 344 344 344 343 343 340 335 331 329 326 325 326 330 332 335 339 340 340 340 341 339 340 340 340 337 328 330 332 331 334 334 333 333 332 332 332 332 333 332 331 328 329 330 330 332 333 335 336 337 336 335 334 334 335 334 334 334 333 331 332 333 334 333 333
345 345 347 346 344 343 341 342 340 337 336 340 340 338 336 335 338 338 337 337 339 340 341 341 341 340 335 330 328 327 325 326 330 334 335 336 338 340 341 340 340 339 340 340 340 338 331 331 332 332 333 333 333 333 332 332 331 331 332 332 332 329 329 330 330 332 334 337 338 338 337 337 335 332 333 333 333 333 332 331 330 331 333 334 333
345 344 346 346 344 343 341 343 340 337 338 339 341 340 336 336 338 336 333 333 334 334 335 335 336 334 331 330 332 331 326 327 332 335 337 337 337 339 340 340 340 339 340 339 339 338 332 331 332 332 332 332 332 332 332 331 331 330 331 332 332 329 329 330 330 331 334 338 338 338 337 338 337 334 333 332 332 332 331 331 330 330 333 334 333
345 344 346 345 345 344 342 343 339 338 339 339 341 340 336 336 336 334 332 331 331 330 331 331 330 330 331 333 336 334 328 330 333 337 339 338 337 339 340 339 339 339 339 339 339 337 331 330 331 332 332 331 331 331 331 330 330 329 331 332 332 330 330 330 330 331 336 339 339 339 337 337 337 335 334 334 333 333 332 332 333 332 333 335 334
345 345 346 344 345 345 342 342 340 339 340 340 341 339 336 335 334 332 332 332 331 331 331 330 330 329 330 334 338 333 329 332 334 339 340 339 338 338 339 339 339 339 339 339 339 337 331 329 330 330 330 330 330 329 330 330 329 329 331 332 332 330 330 330 330 333 338 340 340 339 336 337 338 337 335 335 335 334 334 334 335 334 333 334 334
345 346 346 344 344 344 341 341 340 339 340 341 341 339 336 335 334 333 333 332 330 328 328 328 327 325 326 333 336 332 331 334 335 340 340 340 338 337 339 339 339 339 339 338 338 338 333 329 328 329 328 328 328 328 328 328 329 329 331 332 331 330 331 331 330 334 339 339 339 338 336 337 338 337 335 335 336 336 336 335 335 335 335 334 335
345 346 345 345 345 343 340 340 340 338 341 342 340 338 336 335 334 334 332 329 324 322 326 330 330 328 329 334 335 333 336 337 338 340 340 340 337 337 338 339 339 338 339 338 338 338 333 327 327 327 327 327 327 327 328 328 328 330 332 332 331 330 331 330 332 336 339 339 339 338 337 337 337 337 336 336 336 336 335 334 334 335 335 334 334
345 345 345 345 345 342 340 339 339 339 340 342 341 338 337 336 336 334 330 329 325 325 331 335 336 335 335 335 335 336 339 339 338 340 340 338 336 337 338 339 339 338 338 337 338 337 330 326 327 326 326 326 326 326 326 327 328 330 332 331 331 331 331 331 334 337 339 339 339 338 337 337 338 337 336 336 336 335 335 334 334 334 334 334 334
345 345 344 345 346 342 339 339 339 339 340 342 341 338 338 338 337 332 330 333 330 330 335 337 337 335 336 335 335 337 339 339 339 340 340 337 335 337 338 339 338 337 337 337 338 334 327 326 327 326 326 325 325 325 326 327 329 331 331 331 331 331 332 333 336 338 339 339 339 339 338 338 338 337 336 337 336 335 334 334 334 334 334 334 333
345 346 345 346 346 341 338 340 338 339 341 341 341 339 338 338 337 331 332 335 332 332 334 337 336 334 335 335 336 337 339 339 339 339 339 337 335 338 339 338 336 335 336 336 336 330 326 327 326 326 325 324 323 323 325 328 330 331 331 331 332 332 333 335 338 338 339 339 339 339 339 338 338 336 336 337 336 335 335 334 334 334 333 333 332
345 345 345 346 344 340 339 339 338 339 341 341 342 340 338 339 337 332 333 334 332 333 335 337 337 335 337 337 337 336 338 338 338 338 339 338 336 338 338 337 335 334 336 335 332 328 327 327 326 326 324 323 322 322 326 329 330 331 331 332 332 332 335 337 338 338 339 339 339 339 339 338 337 336 336 336 336 335 334 334 334 333 332 332 331
345 345 344 345 343 340 340 339 338 339 341 342 342 340 338 338 336 334 333 332 331 332 335 337 337 337 337 337 337 337 337 336 336 338 338 338 337 337 337 336 334 333 335 332 328 327 327 327 326 326 324 323 321 321 327 330 331 331 332 333 334 334 335 337 338 338 338 339 338 339 339 338 336 336 337 336 336 335 334 334 333 332 332 331 330
345 344 343 344 343 340 340 339 338 339 341 342 343 340 338 337 336 336 334 333 330 331 334 335 336 337 335 335 338 339 336 334 336 338 337 337 336 336 336 334 333 333 333 329 328 328 327 327 326 326 324 323 321 322 328 331 331 332 333 334 334 335 337 338 338 338 338 338 338 339 339 337 335 336 336 335 335 334 333 333 332 331 331 330 329
343 343 343 343 342 340 340 339 339 339 341 342 343 340 338 339 338 337 335 335 333 330 333 334 335 337 337 337 339 339 336 336 338 337 335 335 336 336 335 333 332 333 331 328 328 328 327 327 326 325 324 322 321 323 328 331 332 333 334 335 335 335 337 338 338 339 339 338 339 339 338 336 335 336 336 335 334 333 333 332 332 331 330 329 328
342 342 343 343 342 341 340 340 339 339 340 341 343 341 339 340 340 339 337 337 336 332 331 333 334 336 338 339 339 339 338 339 339 337 335 334 334 334 333 331 331 332 329 329 329 328 327 326 326 325 323 321 321 324 329 332 332 334 334 335 335 335 337 339 339 338 339 339 339 339 337 336 335 335 335 335 334 333 333 332 331 330 330 329 328
341 341 343 343 342 341 341 341 341 340 341 340 342 341 339 340 340 339 339 338 337 334 331 331 332 333 336 339 339 339 339 339 339 338 337 336 334 332 331 331 332 332 328 329 328 327 327 326 326 324 322 320 321 325 330 332 333 334 335 335 335 335 337 339 338 338 340 340 339 338 336 335 335 335 335 334 334 333 332 332 331 330 329 329 328
341 341 343 342 342 342 341 342 342 342 342 341 342 341 339 340 339 339 340 339 337 334 332 330 330 331 333 337 339 339 338 338 338 338 337 337 335 332 331 331 333 332 328 328 328 327 327 326 325 323 320 320 323 327 331 333 334 335 335 336 335 336 338 339 337 338 340 339 339 337 335 335 335 335 334 334 333 332 332 331 330 329 328 327 326
341 341 342 343 343 342 341 342 342 342 343 342 342 342 340 339 338 339 340 339 337 334 333 331 329 329 330 335 338 338 338 338 337 338 337 336 335 334 332 331 333 333 329 327 327 327 326 326 324 322 319 320 325 329 332 334 335 336 336 335 335 338 340 339 338 338 339 339 338 336 335 335 335 334 334 333 333 332 331 330 329 328 326 322 318
342 341 342 343 342 342 341 342 342 341 342 343 343 343 341 339 338 339 340 338 337 335 334 332 330 329 329 334 337 336 337 337 338 338 337 336 336 335 333 330 333 333 329 326 326 326 325 325 323 320 320 321 325 330 333 335 335 336 335 336 337 340 340 338 338 338 338 338 338 335 334 334 335 334 333 333 332 331 330 328 327 324 318 312 308
342 341 342 342 342 342 342 341 342 341 342 343 342 343 342 340 339 340 341 339 337 337 335 334 333 332 331 334 335 335 336 336 337 338 337 337 336 335 333 331 332 332 328 326 325 325 325 324 322 320 321 322 326 333 335 334 335 336 336 337 339 340 339 339 337 337 338 338 337 334 333 334 334 333 332 332 330 329 328 326 322 314 308 304 304
344 343 343 343 342 342 342 341 342 341 342 342 342 343 342 341 340 341 341 341 339 338 336 335 335 334 333 334 334 334 334 335 336 336 336 338 336 334 333 330 331 331 328 327 325 324 324 322 320 320 321 323 330 336 336 336 336 336 337 338 339 339 339 339 337 338 337 337 335 333 333 333 333 333 331 329 328 327 325 319 312 307 306 307 311
345 344 344 343 343 342 342 342 341 341 341 341 341 342 342 341 340 340 341 341 340 338 337 336 335 334 334 334 334 333 333 334 336 336 337 337 337 334 333 331 331 330 328 329 327 324 322 321 319 319 323 327 333 336 335 337 338 338 339 339 339 339 339 338 337 336 336 335 334 333 333 332 333 332 330 329 327 324 317 309 306 306 309 314 317
346 345 344 343 343 342 342 342 341 341 341 340 340 341 342 341 340 341 341 341 341 339 337 336 335 334 334 334 334 333 333 334 334 336 336 336 335 334 333 333 333 332 330 332 331 326 325 327 323 324 330 332 334 334 334 337 339 340 339 338 338 338 338 337 336 335 334 334 333 332 332 332 332 330 329 327 322 316 311 309 310 310 312 316 319
345 344 343 342 342 342 342 342 341 341 341 340 339 340 341 341 340 340 341 341 340 339 336 335 335 334 334 334 335 334 334 334 333 334 334 334 334 334 335 334 335 335 332 334 334 329 329 332 331 331 334 334 334 335 336 338 339 339 338 338 338 337 337 336 335 334 333 333 332 332 332 331 330 328 326 321 315 314 315 316 317 316 314 316 317
345 344 343 342 342 342 342 342 340 341 341 339 339 339 340 340 339 340 341 340 339 338 336 335 334 333 334 335 335 335 335 335 334 334 334 334 334 335 335 335 335 335 334 335 333 330 330 332 333 334 334 335 336 336 338 339 339 339 338 338 337 336 336 334 333 332 332 331 330 331 330 328 327 324 320 317 317 318 319 319 318 318 317 316 316
345 344 343 342 341 341 342 342 341 340 340 339 338 338 339 339 339 340 340 339 338 336 335 335 334 334 334 335 335 336 336 336 335 335 335 335 335 336 336 335 335 336 335 335 331 329 332 333 334 334 334 335 336 337 339 339 339 338 337 337 336 335 334 333 332 331 330 329 329 328 326 326 324 321 319 320 321 321 320 319 318 317 317 317 316
346 345 344 342 342 341 340 341 341 341 340 339 338 338 339 338 339 339 339 339 338 335 334 334 334 334 334 335 335 336 336 336 336 336 335 335 336 336 336 336 336 335 333 332 331 331 334 334 334 334 334 336 337 339 339 338 338 338 337 336 335 334 333 332 330 329 329 328 327 323 320 321 321 322 322 322 321 321 320 319 318 317 316 317 317
347 345 344 343 342 341 340 340 341 340 340 340 338 338 339 338 339 338 339 339 337 335 334 334 334 335 335 335 336 337 337 336 335 336 335 335 336 335 336 335 335 334 331 330 333 334 334 334 334 335 336 338 339 339 339 338 338 337 336 335 333 332 330 329 329 328 327 327 326 322 316 314 316 319 321 321 320 320 319 318 318 318 317 317 316
348 346 345 344 343 341 340 340 340 340 339 339 338 338 338 338 338 338 338 338 336 336 334 333 334 335 334 335 336 335 336 335 334 335 334 335 335 334 334 334 333 332 330 332 335 336 335 335 335 336 338 338 339 339 339 337 337 336 335 333 331 330 328 327 326 326 326 326 325 323 318 314 315 318 319 320 319 319 319 318 318 317 317 317 316
348 348 346 345 343 342 341 340 340 340 339 338 338 338 338 338 338 337 337 337 337 336 334 334 335 335 333 334 335 333 334 334 332 334 334 334 335 334 334 334 333 331 331 334 336 337 338 339 339 339 339 338 339 339 338 337 336 335 333 331 329 329 328 326 325 324 324 324 323 323 321 318 317 319 320 319 319 318 318 318 318 317 317 317 316
348 349 347 346 344 343 342 341 340 340 340 338 338 338 337 338 337 337 336 336 337 335 333 334 335 334 331 332 333 331 332 331 328 333 336 336 336 336 335 334 333 332 333 335 337 339 340 341 340 340 340 339 339 338 337 337 336 333 330 329 328 328 327 325 324 323 322 321 321 321 322 320 318 319 319 318 318 318 318 318 317 317 317 317 317
349 349 348 347 345 344 343 341 341 341 340 339 338 338 337 337 337 337 336 336 336 334 334 336 334 331 329 330 333 333 334 332 331 336 339 339 339 338 337 336 334 332 333 337 339 341 341 341 341 340 340 339 339 338 337 336 334 331 329 328 327 326 326 325 323 322 320 318 317 318 320 320 319 318 317 317 317 317 317 317 317 317 317 316 317
349 349 349 347 345 344 343 342 341 341 340 340 338 337 337 337 337 337 337 336 336 335 335 336 332 328 328 332 336 337 337 337 337 340 340 340 341 340 339 339 336 334 336 339 340 341 341 340 340 339 340 339 338 337 336 335 332 330 329 327 326 326 325 323 321 319 318 316 315 315 317 319 319 318 316 314 315 316 316 316 315 315 315 315 315
349 349 349 348 346 345 344 343 342 341 340 339 339 338 338 338 337 336 336 335 335 335 336 336 328 324 330 335 338 339 338 339 339 340 340 341 340 341 342 341 339 338 340 341 341 341 341 340 340 339 340 339 338 337 336 334 331 329 328 327 326 325 324 320 319 318 316 315 314 313 314 316 318 318 317 315 313 311 311 313 313 313 313 314 314
350 350 349 348 347 345 344 344 343 342 340 339 339 339 338 338 338 337 337 336 336 336 337 335 325 324 333 338 339 339 338 339 339 340 340 340 340 341 342 341 340 340 340 341 341 341 341 340 340 340 340 339 337 336 334 331 330 329 327 326 326 325 322 318 317 316 315 314 312 312 313 314 315 315 317 317 314 309 305 306 308 310 311 312 312
350 350 350 349 348 346 344 344 343 342 341 340 339 338 338 338 338 338 338 337 336 336 338 333 323 326 336 339 339 339 338 338 339 339 340 340 340 340 341 340 340 340 341 342 342 341 341 340 340 340 340 338 336 334 331 329 328 327 326 326 325 323 320 317 315 314 313 312 311 311 312 312 312 313 315 316 314 311 306 302 303 306 307 309 310
349 349 350 349 348 346 345 344 344 342 341 340 339 339 339 338 338 339 339 338 337 336 338 333 323 328 337 339 339 339 339 339 338 339 340 340 340 339 340 340 340 340 341 342 342 341 341 340 340 340 339 338 336 333 331 329 328 326 325 325 323 321 319 317 314 314 312 311 310 310 311 311 311 311 312 313 312 311 309 307 307 306 305 305 307
349 350 350 349 348 347 345 344 344 343 341 341 340 339 338 338 339 340 339 338 337 336 338 334 325 328 337 339 340 339 339 340 338 339 340 340 340 339 339 339 339 340 340 342 341 340 340 340 339 339 339 337 334 333 331 329 327 325 324 323 321 320 318 316 314 313 312 311 309 309 309 309 309 309 309 309 309 309 309 310 310 309 306 302 300
347 349 349 349 349 348 346 345 344 343 342 341 341 340 339 339 339 340 340 338 337 336 337 335 327 329 336 338 340 340 340 340 339 339 340 340 339 338 338 338 339 340 340 341 340 340 339 339 338 338 338 336 333 333 331 327 326 326 324 322 320 319 317 315 313 312 312 311 310 310 309 309 309 308 308 308 307 307 307 308 307 307 308 305 302
347 347 348 348 349 348 347 346 345 344 343 342 342 341 339 339 339 340 339 338 337 336 336 336 330 330 336 337 339 340 340 340 339 339 339 339 339 338 338 338 339 340 340 341 340 339 338 338 338 338 338 335 333 332 330 328 329 329 326 322 320 318 316 314 313 312 312 311 311 310 309 309 309 308 307 307 306 306 306 306 307 306 306 306 307
347 347 348 348 348 348 348 347 346 344 344 344 343 342 340 340 340 340 340 338 337 337 335 334 330 332 336 337 339 340 340 340 339 339 339 339 339 339 338 338 339 339 340 341 340 338 337 337 337 337 337 335 332 330 329 330 332 330 326 323 322 320 318 316 314 313 312 312 311 310 310 309 309 308 307 307 306 306 306 306 306 306 307 307 307
348 347 347 348 348 348 348 347 346 345 345 345 343 343 341 341 341 341 340 338 338 338 336 332 331 333 336 337 338 340 339 339 339 338 339 339 339 339 339 338 339 339 340 341 340 338 337 337 336 336 336 335 333 331 330 332 332 329 327 326 324 323 323 320 317 315 313 312 311 310 310 309 308 308 307 307 307 306 306 306 306 307 307 307 307
349 348 348 348 348 349 348 347 347 346 346 345 344 344 342 342 342 342 341 340 340 339 337 333 332 332 333 335 338 339 339 339 338 338 339 339 339 339 339 339 339 339 340 341 340 338 337 336 335 335 335 335 334 332 331 332 331 328 328 328 326 326 327 323 320 318 314 313 312 311 310 309 308 307 307 307 307 307 307 306 307 307 307 307 307
349 348 348 348 347 348 348 348 348 347 347 346 345 344 343 342 342 342 341 341 340 340 337 333 331 331 332 335 338 338 338 338 338 338 339 339 339 339 340 340 340 340 340 341 340 339 338 336 335 336 335 335 334 333 332 331 329 328 329 329 328 328 328 323 322 322 317 314 313 312 311 310 309 308 307 307 307 307 307 307 307 307 307 308 307
348 349 349 348 348 348 348 348 347 347 347 347 345 344 344 343 343 342 342 341 341 340 337 335 335 335 336 337 338 338 338 338 338 338 339 339 339 340 340 340 340 340 340 341 341 339 338 336 335 335 335 334 333 333 333 331 328 328 328 329 329 328 327 324 325 324 320 316 315 313 312 311 310 309 308 307 307 307 307 307 307 307 308 307 307
348 349 349 349 349 347 346 347 347 347 348 347 346 346 345 344 343 343 342 341 341 340 339 338 338 338 338 338 337 338 338 338 338 339 339 339 339 339 341 341 340 341 340 340 341 340 338 336 335 334 334 334 333 333 332 330 329 329 328 327 327 326 326 325 325 326 324 321 318 315 314 312 311 310 309 308 307 306 307 307 307 307 307 307 307
348 349 349 348 348 346 346 347 348 348 348 348 347 346 345 345 344 343 343 342 341 341 340 339 339 338 338 338 338 338 337 337 338 338 339 339 339 340 341 341 341 341 340 340 340 340 338 336 335 334 334 333 332 331 330 330 330 329 327 327 327 326 325 325 324 325 325 324 321 318 315 314 313 312 310 309 307 306 307 307 307 307 307 307 307
349 349 348 346 346 346 345 347 348 348 349 348 347 347 346 345 345 344 343 343 343 342 341 340 340 339 338 338 339 338 337 337 338 338 339 339 339 340 341 341 341 340 340 340 340 340 339 337 335 335 334 332 330 328 328 330 330 329 328 327 327 327 326 325 324 324 324 324 323 321 318 316 315 314 311 310 308 307 307 308 308 307 307 307 306
349 348 346 345 345 346 346 347 347 348 349 348 348 347 346 346 345 345 344 344 344 343 342 341 341 340 339 339 339 338 337 337 338 338 339 340 340 341 341 341 340 340 339 339 340 340 339 337 336 335 334 332 330 328 328 330 330 329 329 328 328 327 327 326 325 324 324 324 323 323 321 318 316 315 313 311 308 307 307 308 308 307 307 307 306
Wind_Speed
19 22 20 24 24 21 20 18 17 17 18 17 16 16 16 17 17 17 16 16 16 15 15 15 15 15 15 14 13 14 14 14 13 13 14 15 15 16 16 15 15 14 14 15 14 14 15 17 17 18 20 20 19 17 16 15 15 15 15 15 15 14 14 14 14 14 14 14 13 13 13 13 13 13 12 13 15 15 13 12 13 13 15 15 15
24 23 21 24 24 23 21 19 17 17 18 17 17 16 17 17 17 16 16 17 16 16 15 15 15 14 14 14 14 14 14 14 13 13 14 15 15 15 15 15 14 14 14 15 15 14 15 17 18 19 19 18 16 15 14 14 14 14 13 13 13 13 13 13 13 13 13 13 13 13 14 14 13 13 13 13 13 14 14 14 14 13 14 14 15
25 23 21 24 25 23 21 20 18 18 18 17 17 18 18 18 17 16 16 17 17 17 16 15 15 14 14 15 15 14 14 14 14 14 13 14 16 16 16 16 15 14 14 14 14 14 15 17 18 18 17 16 15 13 12 13 13 13 12 11 11 12 12 12 12 12 12 12 12 12 13 14 15 14 13 13 13 13 13 14 14 14 13 14 15
26 23 22 24 24 23 21 21 20 19 18 18 17 18 19 18 16 16 17 18 18 18 17 17 15 15 16 16 15 14 14 14 14 13 13 14 16 16 16 16 15 15 14 13 14 14 14 16 17 17 15 14 13 12 11 12 11 11 10 10 10 10 11 11 11 11 11 12 13 10 10 13 15 15 14 13 13 13 13 14 15 15 14 14 14
26 23 22 24 23 22 22 21 20 20 19 18 18 19 20 19 17 17 18 18 18 18 18 18 17 17 17 16 14 13 14 14 13 13 15 16 16 16 16 15 15 15 13 13 13 13 13 15 16 15 13 12 11 11 11 10 10 9 9 9 10 10 10 11 11 11 12 13 13 10 9 11 12 14 14 13 13 13 13 14 14 14 13 13 14
26 23 23 24 22 22 23 21 20 21 20 19 19 20 21 20 18 17 16 16 15 15 16 16 16 17 16 16 14 14 16 14 12 14 15 16 16 16 16 15 15 15 13 13 13 12 13 15 14 13 11 10 10 10 10 9 8 7 7 8 10 10 10 10 10 10 11 11 11 9 9 10 11 13 13 12 12 12 12 12 12 13 13 12 12
26 24 24 24 23 22 23 22 21 22 21 20 19 20 22 21 19 18 16 15 14 13 13 14 14 14 15 16 15 16 17 14 13 14 15 16 15 16 16 15 15 14 14 13 13 12 14 14 13 12 10 9 9 9 9 8 7 5 6 7 10 10 10 10 9 10 10 9 8 8 9 10 10 11 11 11 10 10 10 10 10 11 12 11 10
24 24 24 24 23 23 25 23 22 22 21 20 19 20 21 21 20 18 16 14 13 13 13 13 13 14 15 17 17 19 18 14 15 14 15 17 15 16 16 16 15 14 14 13 13 12 13 13 12 11 10 9 8 8 8 7 6 5 6 8 10 10 10 9 9 10 10 8 7 8 9 10 10 11 11 10 9 9 9 9 10 10 11 11 10
23 24 24 23 22 25 26 24 22 23 22 20 19 20 20 20 19 17 15 13 11 13 14 15 15 14 16 17 18 21 18 15 16 16 16 17 16 17 16 16 15 14 14 13 13 12 12 13 12 11 9 9 8 8 7 7 6 6 7 9 10 10 9 9 9 9 8 7 7 9 9 10 10 11 10 9 9 9 8 9 10 10 10 10 10
23 23 23 21 22 25 27 25 23 24 23 20 19 19 20 19 17 16 15 12 12 16 18 17 16 16 16 16 18 21 18 15 16 17 17 17 17 17 17 16 14 14 14 13 13 12 13 13 12 11 9 9 8 8 7 7 7 7 9 11 11 9 9 8 9 8 6 6 8 9 9 10 10 10 10 9 9 9 9 10 10 10 10 11 11
22 22 21 20 23 26 28 26 24 25 23 20 19 19 19 18 16 15 15 13 13 16 18 17 17 16 15 17 19 19 16 15 17 18 17 16 17 17 17 16 14 13 13 13 12 12 14 13 12 11 9 8 8 8 7 7 8 9 11 11 11 9 8 9 8 6 6 7 7 8 9 10 10 10 9 9 9 9 10 10 11 11 11 12 12
20 20 19 19 23 27 28 26 25 26 23 21 19 19 19 18 16 16 15 14 14 16 18 17 17 16 14 16 19 18 15 16 17 17 16 15 16 16 16 15 13 13 13 13 12 14 15 13 12 10 9 8 7 8 8 8 9 11 12 11 10 9 9 9 6 5 7 6 7 8 9 10 10 10 9 9 10 10 10 11 12 12 13 13 13
19 18 17 19 22 27 29 26 26 26 23 21 20 20 19 18 16 16 16 15 16 17 18 17 17 15 15 17 19 18 16 17 17 16 15 16 16 15 14 13 13 14 13 13 14 15 14 12 11 10 9 8 7 8 9 9 10 12 12 11 10 9 9 8 5 5 7 6 7 8 9 11 10 10 10 10 10 10 11 12 13 13 13 14 13
19 17 17 19 21 26 27 25 26 25 23 21 21 20 19 18 16 16 16 15 17 18 18 17 17 15 16 18 18 18 18 17 16 16 16 17 16 14 13 12 13 14 13 14 16 15 13 12 11 10 9 8 8 8 9 10 11 12 11 10 9 8 9 7 5 6 7 7 8 8 10 11 10 10 10 10 11 11 12 12 13 13 13 13 13
18 16 17 18 20 23 24 24 25 25 23 21 21 20 19 18 17 17 17 15 16 18 18 17 18 17 17 20 20 18 18 18 17 17 17 17 16 14 13 12 13 13 13 15 15 14 12 11 10 9 8 8 8 8 10 11 11 11 10 9 8 8 7 5 5 6 6 7 8 9 10 10 10 10 10 11 11 12 12 12 12 12 12 12 12
17 17 17 17 18 21 22 22 24 24 23 21 20 20 19 19 18 18 17 16 15 17 18 18 18 17 16 18 20 19 19 18 17 17 17 16 15 14 12 12 12 12 13 15 14 13 12 10 9 8 8 8 8 8 10 11 11 10 9 8 8 8 8 6 6 6 6 7 8 9 10 11 11 10 11 11 12 12 12 11 11 11 11 11 10
16 16 16 16 17 19 20 20 22 24 22 21 20 20 19 19 18 17 17 16 14 14 17 19 18 16 15 16 18 19 20 19 17 17 16 15 14 13 12 13 12 11 13 14 13 12 11 10 9 8 8 8 8 9 9 10 10 9 8 8 7 7 9 8 6 6 7 7 8 9 11 11 11 11 11 11 11 11 11 10 10 10 10 10 8
15 15 15 15 17 18 18 18 21 21 20 20 20 19 19 18 17 17 17 16 14 13 15 19 19 17 16 16 16 17 20 20 18 16 15 15 14 12 12 13 12 11 13 13 12 12 10 10 8 7 7 8 8 9 9 9 9 8 8 7 7 7 10 8 6 6 7 8 9 11 11 11 11 10 10 11 11 10 9 10 10 9 9 9 7
14 14 14 15 16 17 17 18 19 19 18 18 18 19 19 18 17 17 17 16 13 12 14 16 18 18 17 16 16 16 17 17 17 16 15 14 13 12 13 14 12 11 12 12 12 11 10 9 8 8 8 8 8 9 9 9 9 8 7 6 7 8 9 7 6 7 7 8 9 11 12 11 10 10 9 10 9 8 9 9 8 7 7 7 6
14 14 14 14 15 16 16 17 17 19 19 18 17 17 19 19 17 17 17 16 13 13 13 13 15 18 19 17 16 15 14 15 15 14 14 13 12 12 13 15 13 11 12 12 11 10 9 9 8 8 8 9 9 9 9 9 9 8 7 7 7 7 7 6 6 7 8 9 10 11 11 10 9 8 9 9 9 8 8 7 6 6 6 6 6
14 15 15 15 15 15 15 16 17 18 18 18 18 17 18 19 18 17 17 15 13 13 12 12 12 15 18 17 15 15 14 14 14 14 13 12 13 13 12 14 13 11 12 12 11 10 9 8 8 8 8 9 9 10 10 9 8 8 7 7 7 6 5 5 6 7 7 8 10 11 10 9 8 8 9 9 8 7 7 6 6 7 6 7 7
16 16 16 16 16 16 16 16 17 18 18 18 18 17 18 18 17 17 16 15 14 13 12 13 12 13 16 16 15 16 15 14 15 14 13 13 14 13 12 14 14 12 12 11 10 10 9 8 8 9 9 9 9 9 9 8 8 8 8 7 6 4 5 6 6 7 8 9 11 10 9 8 8 8 7 7 6 5 5 6 7 7 7 8 9
18 17 17 17 17 17 18 18 17 18 19 17 17 18 17 18 18 17 16 15 14 14 13 14 14 13 14 15 15 15 15 14 15 14 14 14 14 14 12 13 15 13 13 11 10 10 9 9 9 9 9 10 9 8 8 8 8 8 6 5 4 4 5 6 6 8 8 10 11 9 8 7 7 7 6 5 5 6 7 6 7 7 9 10 11
17 17 17 18 18 18 19 19 18 19 19 17 16 18 18 18 19 18 17 16 15 15 15 15 14 14 14 14 15 15 14 14 15 14 14 14 13 13 12 13 15 14 14 11 9 9 8 8 9 9 10 9 7 7 7 8 8 7 5 4 5 5 6 5 7 8 9 11 10 8 8 8 8 7 5 4 5 6 6 6 7 8 10 12 13
16 15 16 18 19 19 20 20 19 19 20 18 16 17 18 18 19 19 18 18 17 16 15 15 15 15 14 14 14 15 15 14 15 14 14 15 13 13 12 13 14 13 14 11 9 9 8 8 9 10 9 8 7 6 6 7 7 6 5 5 5 5 5 6 7 9 10 11 8 7 8 9 9 7 4 3 4 6 7 8 9 10 11 12 13
16 15 15 17 20 20 20 21 20 20 20 19 17 17 18 18 18 18 18 18 17 17 16 16 15 16 15 14 14 15 15 14 15 15 14 14 13 13 13 13 13 13 13 11 10 10 9 9 10 9 8 8 7 6 6 6 7 7 6 6 6 5 6 6 8 9 11 10 8 8 9 8 6 4 3 4 6 8 10 11 11 11 11 12 12
16 15 16 17 20 21 20 20 20 20 20 19 17 17 18 18 17 18 19 18 18 18 17 16 16 16 15 14 15 15 15 15 15 15 13 14 13 13 13 13 13 12 13 11 10 10 9 9 9 8 8 8 8 6 6 7 7 7 7 7 6 6 6 7 8 9 10 10 8 8 8 6 4 4 6 8 10 11 12 12 12 11 11 11 11
17 16 17 18 21 22 21 21 20 21 20 19 17 17 17 18 17 18 19 18 18 18 17 16 15 16 15 15 15 14 14 14 15 14 13 13 13 12 12 12 12 12 12 11 10 10 9 9 9 8 8 8 8 7 7 7 7 7 8 8 7 7 6 7 8 9 10 9 8 8 8 7 6 7 9 10 11 11 11 11 11 11 11 10 10
18 18 18 18 20 22 23 22 21 21 21 20 18 17 17 18 18 19 19 19 19 17 16 16 15 15 15 15 15 14 14 14 14 14 13 13 12 12 11 12 12 11 12 11 10 10 10 9 9 8 8 8 8 8 8 8 8 8 8 8 7 8 8 8 8 7 8 8 9 8 7 7 8 10 11 11 11 11 10 10 10 10 10 10 10
19 21 20 19 20 22 23 23 22 22 21 20 19 18 17 18 18 19 18 19 19 17 16 15 14 14 15 15 15 14 14 14 15 14 13 13 12 12 11 11 11 11 12 11 10 11 10 10 9 9 9 9 8 8 8 8 8 8 8 8 9 9 8 8 7 7 7 8 9 8 7 7 8 10 11 10 10 10 10 10 10 9 10 10 10
19 22 22 21 21 22 22 23 23 22 22 21 20 19 18 18 18 18 18 19 19 18 17 15 14 13 15 16 15 15 14 14 15 14 13 13 12 12 11 11 11 11 11 11 11 11 10 10 9 9 9 9 8 8 8 8 8 8 9 9 9 9 8 8 7 7 7 8 8 9 8 8 9 10 11 10 10 10 9 9 9 9 9 9 10
20 21 22 21 23 24 23 23 24 23 22 21 20 19 19 18 18 18 18 18 18 19 18 15 14 13 15 17 16 17 15 15 16 15 14 13 12 12 11 11 11 11 12 12 12 11 10 9 9 9 9 8 8 8 8 8 8 8 9 10 9 9 8 8 7 7 7 8 8 9 9 9 10 11 11 10 9 9 9 9 9 9 9 9 9
20 19 19 20 23 25 24 23 24 24 22 21 21 20 19 18 18 17 17 17 17 19 17 14 13 13 16 18 17 17 16 16 18 16 14 13 12 12 11 11 11 12 13 13 12 11 9 9 9 10 10 9 9 10 9 9 9 9 10 10 9 9 8 7 7 7 7 7 7 8 9 9 10 11 11 10 10 9 9 9 8 8 8 8 8
20 20 21 21 22 24 24 24 24 25 23 23 21 20 19 18 18 17 17 17 17 17 16 14 13 14 16 19 18 18 16 17 18 16 14 14 13 13 12 12 12 13 14 13 12 10 9 10 10 10 10 10 10 10 10 9 10 10 10 9 9 9 8 7 7 6 7 7 7 7 8 8 9 9 10 10 10 9 9 8 8 7 7 7 7
21 22 23 23 22 22 23 24 25 25 25 24 22 20 19 18 17 17 17 17 17 16 15 14 14 14 17 19 18 17 16 16 16 14 14 14 14 14 13 13 13 14 14 13 11 9 10 10 11 11 11 11 10 10 10 10 11 11 11 10 9 9 7 7 6 6 6 7 7 7 7 7 8 8 8 8 9 10 9 8 7 7 6 6 6
25 23 24 23 23 22 22 23 24 25 25 24 23 21 19 18 17 17 17 17 16 15 15 14 14 16 17 18 18 18 17 15 15 14 13 14 14 13 13 13 13 14 13 12 11 10 10 11 11 12 12 11 11 10 10 10 11 11 11 10 10 8 7 6 6 6 6 6 6 7 6 6 7 7 7 7 7 8 9 8 8 7 7 6 6
26 24 25 24 24 22 22 23 24 25 24 24 23 21 19 17 17 16 15 16 16 15 15 14 15 16 17 18 19 19 17 16 15 15 14 14 14 13 13 13 13 13 13 12 11 11 11 11 11 12 12 11 11 10 11 10 10 10 11 11 10 8 7 7 6 6 6 6 6 6 6 6 7 7 7 6 7 7 8 8 8 8 7 7 6
24 25 25 25 24 23 22 22 24 25 24 24 23 21 19 17 16 15 15 15 16 14 14 14 15 17 17 18 19 19 17 16 16 16 14 14 13 13 13 13 14 13 12 12 11 11 11 12 12 12 11 10 11 14 15 13 10 8 11 12 10 8 7 7 7 6 6 6 7 7 6 7 7 7 6 6 7 7 7 8 8 8 8 7 6
22 24 24 24 23 22 22 22 24 25 24 23 22 21 19 18 16 15 15 15 16 15 15 15 15 17 17 18 19 18 17 17 17 16 15 14 13 13 12 12 12 12 12 12 11 12 12 12 13 12 11 9 12 16 15 14 11 8 11 12 9 7 7 7 6 6 6 6 7 7 6 7 7 7 7 7 7 7 7 7 6 6 6 6 6
22 22 22 23 23 23 23 23 23 25 25 23 22 22 20 19 17 16 16 16 16 16 16 16 16 17 18 18 19 18 17 17 17 16 15 14 13 12 12 12 12 11 12 12 12 13 13 13 13 13 12 11 12 14 14 16 13 9 11 10 7 7 6 6 6 6 7 7 7 7 6 7 7 7 7 7 7 7 7 6 6 5 5 4 4
23 21 22 23 24 24 25 24 24 25 26 24 23 23 21 19 19 19 17 17 17 16 17 17 16 18 19 19 19 18 17 17 16 16 15 14 13 12 12 12 12 12 12 12 12 13 13 14 13 13 13 13 14 14 16 17 15 11 10 8 6 6 5 6 6 7 7 7 7 7 7 7 7 7 7 7 7 7 7 6 5 5 5 4 2
25 25 25 25 24 25 25 24 25 25 26 26 24 22 21 20 19 19 19 17 17 17 17 18 17 18 19 19 18 17 17 16 16 16 16 15 13 12 13 13 13 12 12 12 12 13 14 14 14 14 13 13 14 16 19 19 15 12 11 9 7 5 5 5 6 7 7 7 7 7 7 8 8 8 8 8 8 7 7 6 5 5 5 4 3
26 27 27 25 26 27 25 24 25 26 25 26 25 22 21 20 19 19 19 18 17 16 16 16 17 18 19 19 17 17 17 16 16 16 16 16 14 13 13 13 13 13 12 12 13 14 15 15 15 14 13 13 13 16 21 20 13 11 10 7 6 5 5 7 8 8 8 8 8 9 8 8 9 9 8 8 8 8 7 6 6 5 4 3 3
24 25 25 25 27 28 26 24 25 26 24 25 25 22 20 20 18 18 18 17 16 15 14 15 17 18 18 19 17 17 17 16 16 16 15 16 15 14 13 13 13 14 13 13 14 15 15 16 16 15 14 14 13 15 20 18 12 12 9 4 5 5 4 7 10 10 10 10 10 10 9 9 9 9 8 8 8 8 8 7 7 6 5 4 3
25 26 27 28 28 28 28 27 27 25 23 24 26 24 22 21 20 18 18 17 16 15 15 15 17 18 19 19 18 18 18 17 17 17 16 16 15 14 13 13 14 14 14 13 14 15 16 16 16 16 16 15 14 15 17 16 13 13 9 3 5 4 4 6 9 8 10 11 11 12 11 9 10 9 8 9 9 9 8 8 7 6 6 5 4
25 26 27 29 29 28 29 29 28 25 23 25 26 26 24 24 24 22 20 20 19 18 17 16 17 18 18 18 18 18 18 18 18 17 17 16 15 15 14 13 14 15 15 13 13 15 16 16 16 17 16 15 14 14 17 16 13 13 11 6 4 4 1 7 6 4 9 11 11 12 12 11 11 10 9 9 10 9 8 8 8 7 7 6 5
25 25 26 28 29 28 30 31 27 25 26 27 27 27 26 25 25 24 22 22 21 19 17 16 17 17 17 18 18 18 18 18 18 17 17 16 16 15 14 13 13 14 14 13 13 14 15 15 16 16 16 15 14 14 15 15 13 13 12 9 6 4 1 5 4 3 5 9 11 12 13 13 12 11 10 10 10 10 9 8 7 8 8 7 6
25 25 25 25 26 28 31 31 28 27 28 28 28 28 27 26 25 25 24 22 22 20 18 17 17 17 17 18 19 18 18 18 18 17 17 17 16 15 14 14 13 13 13 14 13 14 14 15 15 15 15 14 14 14 13 14 16 16 13 11 9 7 7 7 8 8 5 5 8 11 12 13 13 12 11 10 11 11 9 9 8 8 8 7 6
25 25 26 27 27 28 31 30 28 27 27 28 30 28 27 26 25 26 25 23 21 20 19 19 19 18 17 18 18 18 19 19 19 18 17 17 16 15 14 14 14 14 13 13 13 14 14 15 15 15 15 13 14 16 15 15 18 15 13 13 11 9 9 9 9 9 9 7 4 8 11 13 12 13 13 11 11 11 10 10 8 8 8 7 6
22 20 24 29 27 27 29 29 28 26 26 29 31 28 27 27 26 26 26 24 22 21 21 20 20 19 19 19 19 19 20 20 20 19 18 17 17 15 14 14 15 15 14 13 13 14 15 15 16 16 16 14 16 20 18 16 15 13 12 13 12 11 10 9 9 10 10 9 6 5 9 13 12 13 15 13 12 11 11 10 9 8 8 7 6
18 16 19 25 24 24 27 28 28 26 26 29 30 29 28 27 27 27 28 27 24 23 23 22 21 21 21 21 21 20 21 20 20 19 18 18 18 16 15 15 15 15 15 14 14 15 15 15 15 16 17 17 18 19 19 17 15 14 14 13 12 13 12 10 10 10 10 9 7 7 7 11 11 12 15 15 13 12 11 11 10 9 8 7 6
Wind_Direction
163 159 160 173 172 174 174 174 176 170 164 161 157 152 150 149 149 151 154 156 156 154 154 158 157 158 157 156 149 146 145 141 140 137 139 135 132 135 132 125 119 121 116 109 108 105 105 106 104 103 102 100 96 94 92 91 88 86 83 82 82 80 80 81 83 83 85 85 83 81 77 72 66 62 62 58 59 64 67 68 60 52 52 52 53
158 157 158 171 171 173 174 173 175 172 167 160 159 156 155 152 149 149 150 153 153 152 155 157 157 157 155 152 147 149 148 144 139 134 138 138 135 135 134 125 119 124 117 111 111 107 108 109 107 107 105 102 99 97 95 90 85 85 84 85 85 83 81 79 80 82 85 86 83 78 77 75 68 63 62 58 56 58 64 70 66 58 58 55 53
152 154 157 170 172 173 173 172 173 173 168 159 159 159 161 157 152 151 150 151 152 155 156 156 155 153 150 149 150 152 149 143 136 132 136 140 140 137 133 127 123 123 117 113 112 110 112 112 111 112 110 106 103 100 95 88 84 83 84 89 90 88 83 80 79 81 84 84 80 72 70 69 65 64 62 60 57 56 58 64 66 62 62 60 56
150 151 156 170 171 172 173 172 172 170 164 160 159 159 163 159 154 154 155 157 158 160 160 158 155 154 153 153 152 152 148 142 135 134 138 139 142 138 132 129 124 122 118 116 114 114 115 114 115 117 115 111 107 102 95 87 83 82 84 90 97 96 88 83 79 79 81 79 80 76 70 69 65 64 61 59 59 57 57 57 58 58 58 55 54
148 150 155 166 169 173 173 172 172 167 162 163 162 162 163 159 155 156 159 162 164 165 166 165 163 162 160 157 153 154 151 142 139 144 145 141 141 137 133 132 126 124 121 119 117 116 117 118 119 121 121 117 110 103 96 88 83 82 86 95 107 106 95 87 81 79 79 75 76 74 69 73 70 63 59 57 58 58 58 58 56 56 59 48 41
147 149 154 161 167 174 174 172 172 166 163 166 167 165 163 159 158 158 162 165 167 170 170 172 171 169 165 160 154 155 152 144 148 153 149 141 138 136 135 134 129 128 125 121 118 118 121 123 125 126 125 119 111 104 98 91 85 85 90 102 115 114 103 91 83 79 75 68 66 68 65 71 74 67 60 55 55 56 55 58 59 55 65 62 40
146 149 154 160 165 176 175 173 172 168 163 165 169 168 164 161 162 163 167 171 174 178 178 178 175 172 167 158 153 154 149 148 156 155 147 140 137 135 136 136 133 130 126 122 119 119 123 127 130 129 128 122 112 103 98 93 88 90 98 109 121 118 105 93 86 79 69 57 58 64 63 68 76 72 64 58 54 54 53 53 58 53 56 63 50
147 149 154 158 165 178 176 173 172 168 165 165 170 170 166 162 163 166 170 176 179 183 181 174 166 165 164 156 154 150 145 151 156 154 146 138 135 134 137 137 134 131 126 125 121 119 124 130 132 131 128 121 113 104 99 96 91 96 111 119 124 119 105 98 88 77 63 53 56 60 61 67 75 76 67 63 58 51 52 46 51 56 50 50 50
149 149 154 157 166 179 175 173 173 168 166 166 171 172 169 163 163 167 169 170 169 167 161 155 149 147 151 152 152 146 145 156 157 155 148 136 134 136 139 138 134 132 129 129 124 119 127 134 132 131 129 121 112 106 102 97 94 104 120 125 126 117 106 101 89 75 60 58 59 56 62 64 68 74 67 64 61 52 53 50 50 58 53 46 47
149 150 155 156 166 177 174 172 172 168 166 168 172 173 169 163 163 165 162 158 154 150 147 146 145 143 144 148 150 147 148 159 158 152 143 136 138 138 140 139 135 135 133 130 125 123 133 138 134 131 128 120 112 107 104 96 96 108 122 127 124 113 106 97 85 76 61 62 61 59 64 64 66 68 65 63 60 57 57 55 55 56 53 50 48
149 151 155 157 167 173 172 172 172 169 166 170 173 172 168 161 162 163 155 148 148 148 148 148 150 151 150 151 151 147 148 156 157 147 137 137 140 139 142 143 140 137 133 130 125 130 139 140 135 132 127 119 111 106 103 99 102 113 122 126 120 111 102 86 77 74 63 62 63 62 61 62 65 65 64 66 65 64 62 60 59 59 59 57 54
150 151 154 159 171 172 171 172 171 169 167 171 173 171 168 161 160 160 152 147 149 148 149 151 153 155 154 154 151 149 150 152 150 143 136 136 139 141 144 143 141 137 134 134 131 137 142 140 136 131 126 118 108 105 104 106 111 118 124 123 115 107 98 85 72 67 64 60 62 63 61 64 66 66 69 71 71 68 67 67 66 66 66 64 61
149 151 153 156 169 172 171 172 169 169 167 171 174 171 168 162 159 158 154 151 151 149 150 154 154 155 155 156 154 155 158 154 148 143 138 138 142 145 145 142 142 141 139 139 137 140 144 140 136 131 125 117 107 105 108 113 119 124 125 119 109 100 96 87 72 66 66 61 62 64 65 68 68 70 74 75 75 73 73 73 73 73 70 69 66
148 150 152 152 164 171 172 169 168 170 168 172 174 172 169 164 159 157 156 151 150 152 154 156 155 156 159 159 157 160 165 163 157 147 142 144 148 150 149 147 146 145 142 139 139 142 144 141 135 129 124 116 109 109 114 120 124 127 123 115 106 97 95 85 73 73 67 63 65 67 69 70 70 75 79 80 81 80 80 79 77 76 74 71 67
147 148 149 152 162 169 171 168 170 171 169 174 175 172 169 166 162 158 157 152 152 156 158 159 157 156 159 162 159 162 167 165 161 152 147 149 150 152 154 152 148 145 142 141 142 143 142 140 135 128 122 116 111 113 122 127 129 130 124 115 104 99 102 84 69 72 63 64 66 68 72 72 74 81 84 85 87 86 84 83 81 79 77 72 66
146 148 148 154 161 165 169 170 172 172 172 176 175 173 171 169 164 160 160 156 155 159 163 162 160 156 156 163 164 164 163 160 158 156 154 154 152 152 154 153 149 144 144 144 143 141 139 138 134 128 120 116 113 118 129 134 136 134 125 117 102 100 105 86 65 67 59 64 67 70 76 76 79 87 91 89 88 88 86 84 83 81 76 71 63
148 150 149 154 160 161 166 171 174 173 174 178 177 174 175 172 167 165 165 161 157 162 168 168 165 161 155 157 163 164 160 158 157 158 156 156 157 159 161 158 152 147 149 148 143 141 140 139 134 128 121 117 117 121 133 141 145 140 130 119 104 102 102 86 65 65 63 66 72 77 81 82 85 91 92 91 89 88 88 85 80 75 70 65 57
151 152 152 154 158 161 164 169 173 174 175 181 181 177 178 175 170 171 170 166 161 162 171 174 173 169 163 156 157 158 158 159 160 161 157 154 155 159 165 160 153 152 153 149 146 144 142 141 138 133 125 123 123 124 135 145 149 147 138 121 109 105 96 84 70 70 68 71 76 82 86 89 92 96 96 93 91 88 87 82 75 71 66 63 50
155 155 156 157 160 163 165 168 172 175 175 180 184 181 181 175 172 176 173 169 164 163 169 175 178 176 172 164 160 157 156 160 163 162 157 153 151 154 160 159 156 155 156 153 149 148 145 145 142 138 132 130 129 129 137 145 152 152 140 128 121 105 85 75 74 75 74 76 81 86 91 95 98 100 100 95 92 88 83 79 73 67 59 54 35
157 161 163 161 165 165 167 170 173 178 176 179 183 181 183 176 174 181 176 170 167 167 168 171 176 178 176 170 165 163 159 162 164 162 160 157 153 157 163 162 160 158 158 156 152 152 150 149 147 146 140 139 137 136 141 146 153 152 147 141 122 94 74 75 77 76 78 83 88 91 94 98 101 101 100 96 93 87 81 74 57 39 25 24 14
161 168 170 167 170 171 172 173 176 181 178 179 180 179 182 177 177 184 178 173 174 173 172 169 168 172 174 171 166 167 166 168 170 166 166 164 161 167 171 168 164 162 162 157 156 155 155 156 155 154 148 147 146 143 146 150 156 156 152 133 102 82 80 87 81 81 84 88 93 95 96 98 101 100 99 100 96 88 75 50 26 15 13 21 24
166 173 176 173 174 177 178 177 179 183 180 180 179 178 181 177 178 183 178 175 177 176 173 168 165 166 170 170 167 169 170 171 173 170 171 169 171 175 173 172 171 168 165 160 160 160 161 164 162 161 156 153 147 145 149 151 159 157 139 105 85 90 94 90 84 87 89 93 97 95 96 99 101 100 104 107 94 67 37 21 20 23 32 42 50
171 175 177 177 178 180 183 181 182 184 183 183 179 177 177 177 180 182 180 179 176 175 175 172 171 168 169 172 171 172 171 171 172 171 171 168 177 183 178 178 176 172 170 167 166 167 169 170 169 166 159 155 150 152 153 150 153 146 126 98 100 108 99 96 90 91 92 95 97 94 97 100 99 102 106 94 53 21 14 25 40 49 55 61 67
173 173 175 181 181 183 186 184 184 185 186 184 181 178 175 180 183 181 182 181 176 177 179 177 176 174 172 174 175 176 172 171 171 169 169 167 176 185 186 183 178 177 173 170 173 174 172 173 172 165 162 166 169 168 158 152 149 141 132 121 118 113 103 99 93 93 92 92 93 92 97 99 101 101 91 55 15 12 28 50 63 70 74 76 78
169 172 175 183 186 186 185 184 186 186 187 186 184 183 178 182 185 183 183 181 179 180 182 181 180 178 176 177 177 176 173 171 170 168 167 170 174 177 182 179 177 181 175 173 180 176 172 174 173 169 173 182 182 175 163 158 149 144 143 132 124 118 109 96 91 90 88 89 91 91 98 106 111 110 88 37 19 42 61 71 75 80 86 87 84
167 173 175 184 188 188 186 184 186 187 188 187 186 186 184 185 186 185 184 183 183 183 185 184 183 181 180 179 176 175 174 171 170 170 169 171 173 173 176 174 175 182 180 182 183 177 179 179 177 178 181 182 182 178 168 159 149 147 143 136 132 122 111 99 92 88 85 85 88 97 108 118 122 111 72 53 63 76 82 85 85 84 86 89 88
167 172 173 182 188 190 188 184 186 188 189 189 187 188 189 189 188 189 188 187 187 187 188 186 185 184 183 181 177 175 174 171 171 171 171 172 173 173 173 174 177 181 183 187 181 179 183 181 181 183 181 180 181 178 166 157 153 153 146 140 136 126 118 108 100 95 89 86 95 113 118 122 115 87 71 76 85 89 89 90 92 90 87 87 89
165 171 173 180 187 189 187 185 186 189 190 190 190 189 190 192 191 192 192 190 189 190 190 187 186 186 187 185 180 177 174 171 170 171 171 173 175 174 173 175 178 181 182 183 180 180 181 182 183 184 186 183 177 171 163 159 156 153 147 144 139 132 120 110 106 101 97 93 102 126 129 117 102 86 83 90 96 96 94 93 93 94 94 92 93
166 171 175 180 185 186 187 186 186 188 189 189 191 191 191 194 194 195 195 192 192 193 191 188 187 188 189 188 183 179 175 171 170 170 170 172 174 174 175 176 178 179 180 181 179 178 179 182 186 190 187 178 172 166 161 159 159 155 150 148 140 132 120 114 110 99 100 101 103 124 135 122 111 103 100 101 101 101 100 98 97 96 98 98 97
172 171 175 180 182 184 187 187 187 188 188 189 192 193 192 195 197 197 197 194 195 195 192 190 188 189 191 189 185 179 175 172 170 169 169 169 170 172 174 175 176 177 178 181 179 176 179 183 189 191 183 176 172 165 162 161 161 158 154 148 140 132 123 119 114 101 102 107 106 112 123 125 121 117 114 111 106 104 102 103 105 102 101 99 97
178 175 177 177 178 181 186 188 188 187 188 189 191 193 193 196 198 198 199 199 199 197 194 194 191 192 191 187 184 179 174 172 170 168 168 168 168 172 174 174 177 178 179 180 178 178 182 187 191 189 182 179 174 168 166 164 164 162 155 148 140 133 127 121 115 109 108 110 112 111 116 121 120 117 114 112 107 105 106 108 110 109 107 102 96
185 182 179 175 174 177 184 187 189 188 188 190 191 193 194 196 198 199 201 201 201 199 197 197 194 194 191 185 182 179 173 171 169 167 168 169 170 172 175 177 179 180 181 179 179 181 183 187 187 185 185 181 175 175 171 167 168 162 154 148 142 133 126 122 115 110 111 114 117 117 118 121 122 122 118 115 111 108 110 111 114 112 108 104 100
187 186 181 177 175 175 179 185 189 189 189 190 192 193 194 195 198 200 202 200 200 200 199 200 196 192 189 184 179 176 173 171 169 167 168 170 170 172 175 178 180 179 179 180 182 181 182 183 182 182 184 181 176 174 171 171 169 159 155 149 140 133 123 121 116 112 115 116 121 125 125 126 129 130 127 126 122 115 115 114 114 111 108 104 99
181 183 183 180 178 175 175 181 187 189 190 191 192 193 192 194 197 199 201 200 200 201 202 203 196 189 187 183 178 174 171 169 169 169 172 173 171 174 174 175 178 178 179 183 183 182 185 185 183 183 182 181 177 171 171 170 165 159 154 147 136 130 123 119 117 117 118 117 123 132 136 136 134 132 132 138 135 126 121 118 117 113 109 106 99
176 181 183 180 179 178 175 176 184 188 190 191 192 193 191 192 195 197 199 200 201 203 204 203 194 187 184 181 177 173 171 170 171 174 178 177 175 177 176 177 179 179 183 188 186 185 189 187 186 186 182 181 179 175 176 170 166 161 152 145 138 129 125 123 123 124 121 121 128 136 144 145 142 139 135 140 142 140 137 128 122 117 112 110 102
178 179 179 178 179 183 179 173 178 185 189 191 192 192 191 191 193 196 198 200 202 204 205 202 193 186 183 180 177 175 175 176 176 180 184 182 181 180 177 179 183 185 188 190 189 190 190 188 189 188 182 180 182 180 174 167 166 162 150 145 138 131 131 132 130 128 123 124 133 141 147 149 151 151 147 142 142 152 154 143 131 122 113 109 103
179 176 177 177 179 184 184 175 174 180 186 188 190 192 192 191 192 194 197 199 201 204 205 200 191 185 184 182 179 179 180 181 181 185 189 188 187 183 177 182 189 191 192 191 193 195 191 187 187 188 183 182 181 170 156 158 170 162 148 144 138 137 140 138 134 130 129 134 141 146 149 151 154 156 158 154 146 151 158 152 144 133 121 111 103
178 177 177 177 178 183 188 181 173 176 183 186 188 191 192 190 191 195 197 199 202 204 205 199 190 187 186 184 182 182 183 183 185 189 192 191 191 186 180 184 190 192 193 193 196 195 191 187 184 183 185 185 176 167 157 160 174 164 147 144 140 141 141 138 137 133 136 144 147 150 150 151 156 158 162 162 154 151 153 151 143 137 132 124 113
182 181 177 176 176 180 187 187 176 172 177 183 186 188 191 190 191 196 197 199 203 206 206 201 192 190 189 185 183 183 184 185 187 193 195 192 191 187 183 185 187 191 193 193 195 193 189 186 183 178 180 182 174 172 166 163 173 163 147 146 143 145 145 141 142 141 145 149 149 152 154 154 156 161 161 161 162 158 159 159 151 145 143 142 141
189 181 175 175 177 178 184 189 182 172 171 178 184 186 190 191 191 194 195 199 204 206 208 204 196 192 190 186 184 185 186 186 188 194 195 192 190 186 184 186 185 190 195 194 194 191 187 184 183 178 173 168 166 171 167 161 160 144 137 143 141 146 149 146 150 150 151 154 155 156 158 159 158 161 163 163 163 162 168 173 170 163 154 155 149
194 186 179 179 181 182 182 186 185 176 169 173 183 188 190 191 191 193 193 197 202 206 209 207 198 194 191 187 186 187 187 188 189 194 196 194 192 188 186 186 185 191 197 198 196 191 187 183 180 178 173 164 162 172 173 163 155 144 143 147 145 148 150 156 164 164 164 162 162 165 166 167 166 165 167 167 165 166 170 172 175 170 167 174 160
191 191 191 188 188 189 184 181 186 183 174 171 179 189 192 192 191 192 194 196 200 205 208 204 197 193 191 189 189 189 189 190 191 195 199 196 194 192 189 187 188 192 196 199 198 190 188 185 179 179 178 169 165 172 174 170 168 167 161 155 154 158 161 175 187 180 178 174 171 177 177 178 177 173 174 173 173 176 176 177 178 175 179 188 181
188 190 192 190 192 195 187 181 187 188 179 172 175 185 192 191 190 191 194 197 201 206 206 199 193 191 190 191 192 191 192 192 193 196 201 199 196 195 192 191 192 193 194 196 192 189 190 189 184 183 182 175 169 172 176 179 184 176 167 169 172 171 177 193 204 200 193 189 187 188 188 189 186 180 181 183 185 187 186 187 184 181 190 197 197
189 188 188 189 193 196 188 182 189 189 183 176 173 178 186 188 189 190 193 198 201 203 201 192 190 190 190 193 195 194 195 196 195 198 202 202 201 199 194 193 195 195 194 192 190 191 193 192 192 191 185 179 176 177 183 190 193 178 176 191 174 190 223 190 189 200 199 199 202 201 197 196 192 187 190 193 193 195 195 195 192 190 196 200 212
190 187 187 189 192 195 188 184 190 187 184 181 172 170 178 184 185 186 190 194 196 197 194 188 187 190 192 195 198 197 198 200 198 199 203 203 203 204 199 195 196 197 195 193 194 195 196 197 196 194 191 189 182 176 184 196 201 192 201 219 173 220 263 162 166 192 199 205 211 207 206 203 199 196 200 204 199 198 201 201 197 197 202 206 215
192 189 189 191 192 193 186 183 186 185 186 186 175 168 174 183 186 185 189 193 195 197 195 188 187 191 194 196 198 200 202 203 201 200 202 202 204 205 202 199 198 199 196 195 197 197 199 200 197 197 198 198 188 179 185 196 204 209 219 234 226 275 323 139 159 190 191 209 217 211 210 208 207 205 206 211 203 200 204 203 203 203 204 207 213
192 190 191 194 193 190 185 184 184 185 188 187 180 172 173 183 190 191 195 198 200 202 196 189 188 190 193 195 198 202 205 206 203 203 203 203 205 206 204 202 200 200 198 196 199 199 200 200 199 200 201 199 195 191 189 188 200 217 222 226 234 261 223 168 217 244 185 204 214 215 216 209 211 212 211 213 205 201 205 206 209 204 202 205 210
190 189 190 192 191 189 188 186 186 187 186 184 184 179 174 180 189 195 200 205 207 204 196 192 193 191 193 198 202 205 208 208 206 205 205 204 205 206 205 203 201 201 200 198 199 200 201 200 198 200 202 199 195 194 190 190 204 216 215 219 227 230 225 220 244 265 264 231 202 204 216 212 211 214 215 216 208 203 204 211 218 206 200 205 208
191 189 191 196 194 189 188 185 185 188 185 184 188 186 178 177 185 196 203 206 207 204 197 195 198 194 194 199 202 205 207 209 208 207 207 206 205 206 205 204 202 201 201 200 201 201 201 198 193 197 198 190 189 197 202 209 214 213 207 212 221 226 228 229 237 249 260 269 223 189 197 203 210 213 213 214 209 206 205 210 219 210 202 204 209
189 184 189 197 193 186 187 186 187 189 186 186 189 188 184 180 184 194 201 202 201 201 198 195 194 193 195 198 199 203 206 208 208 207 207 207 205 204 204 205 202 201 202 200 200 200 199 197 197 201 197 187 196 208 215 220 217 212 212 211 212 218 225 226 228 234 243 257 264 235 197 194 206 208 205 208 208 208 210 210 214 214 207 205 209
182 179 187 192 188 186 189 189 190 192 189 189 189 189 188 186 186 191 199 201 198 199 199 194 192 192 194 197 199 202 205 207 209 207 206 207 206 205 204 204 203 201 201 199 200 200 198 199 201 206 206 202 206 210 215 222 221 220 222 218 215 221 227 229 229 232 237 242 253 266 229 205 210 206 198 202 206 209 212 210 211 214 209 208 210